Tracking 20241 objects as of 25-Jan-2020
HD Live streaming from Space Station
objects crossing your sky now

COSMOS 2227

Track COSMOS 2227 now!
10-day predictions
COSMOS 2227 is classified as:


NORAD ID: 22284
Int'l Code: 1992-093A
Perigee: 841.4 km
Apogee: 869.0 km
Inclination: 71.0 °
Period: 101.9 minutes
Semi major axis: 7226 km
RCS: 7.0075 m2 (large)
Launch date: December 25, 1992
Source: Commonwealth of Independent States (former USSR) (CIS)
Launch site: TYURATAM MISSILE AND SPACE COMPLEX (TTMTR)
aabbcc
Your satellite tracking list
Your tracking list is empty




NASA's NSSDC Master Catalog

Two Line Element Set (TLE):
1 22284U 92093A   20025.42998423  .00000288  00000-0  17833-3 0  9994
2 22284  70.9781  39.2240 0019072 178.7924 181.3247 14.13307289397192
Source of the keplerian elements: AFSPC